Weather History for KOXB - November, 2012

Change the Weather History Date:

Wednesday, November 7, 2012

  Actual Average (KSBY) Record (KSBY)
Temperature  
Mean Temperature 39 °F 51 °F  
Max Temperature 45 °F 62 °F 78 °F (1938)
Min Temperature 33 °F 40 °F 23 °F (1967)
Degree Days  
Heating Degree Days 26 14  
Month to date heating degree days 94  
Since 1 July heating degree days 407  
Cooling Degree Days 0 0  
Month to date cooling degree days 0  
Year to date cooling degree days 1150  
Moisture  
Dew Point 38 °F    
Average Humidity 93    
Maximum Humidity 100    
Minimum Humidity 80    
Precipitation  
Precipitation 0.55 in 0.11 in 2.00 in (1912)
Month to date precipitation 0.80  
Year to date precipitation 39.34  
Snow  
Snow 0.00 in 0.00 in 0.00 in ()
Month to date snowfall 0.0  
Since 1 July snowfall 0.0  
Snow Depth -    
Sea Level Pressure  
Sea Level Pressure 29.81 in    
Wind  
Wind Speed 13 mph (North)    
Max Wind Speed 20 mph    
Max Gust Speed 29 mph    
Visibility 8 miles    
Events Rain    
T = Trace of Precipitation, MM = Missing Value Source: NWS Daily Summary

Daily Weather History Graph

Daily Weather History Graph

Search for Another Location

Airport or City:

Trip Planner

Search our weather history database for the weather conditions in past years. The results will help you decide how hot, cold, wet, or windy it might be!

Date:

Astronomy

Nov. 07, 2012 Rise Set
Actual Time 6:33 AM EST 4:54 PM EST
Civil Twilight 6:05 AM EST 5:22 PM EST
Nautical Twilight 5:34 AM EST 5:53 PM EST
Astronomical Twilight 5:03 AM EST 6:24 PM EST
Moon No Moon Rise 12:56 PM EST (11/7)
Length of Visible Light 11h 16m
Length of Day
10h 20m
Last Quarter, 43% of the Moon is Illuminated
Nov 7
Last Quarter
Nov 13
New
Nov 20
First Quarter
Nov 28
Full
Dec 6
Last Quarter

Hourly Weather History & Observations

Time (EST) Temp. Windchill Dew Point Humidity Pressure Visibility Wind Dir Wind Speed Gust Speed Precip Events Conditions
12:53 AM 45.0 °F 39.3 °F 39.0 °F 80% 29.89 in 10.0 mi North 11.5 mph - N/A   Overcast
1:53 AM 44.1 °F 37.7 °F 41.0 °F 89% 29.85 in 6.0 mi North 12.7 mph 20.7 mph 0.04 in Rain Light Rain
2:53 AM 43.0 °F 36.8 °F 41.0 °F 93% 29.84 in 6.0 mi North 11.5 mph - 0.05 in Rain Light Rain
3:53 AM 42.1 °F 35.2 °F 41.0 °F 96% 29.81 in 4.0 mi North 12.7 mph 19.6 mph 0.15 in Rain Rain
4:53 AM 42.1 °F 36.1 °F 41.0 °F 96% 29.83 in 9.0 mi North 10.4 mph - 0.06 in Rain Light Rain
5:01 AM 42.8 °F 35.8 °F 41.0 °F 93% 29.82 in 7.0 mi North 13.8 mph 18.4 mph 0.01 in Rain Light Rain
5:53 AM 42.1 °F 34.9 °F 41.0 °F 96% 29.82 in 9.0 mi North 13.8 mph - 0.06 in Rain Light Rain
6:53 AM 43.0 °F 36.8 °F 42.1 °F 97% 29.81 in 8.0 mi North 11.5 mph 19.6 mph 0.01 in Rain Light Rain
7:53 AM 45.0 °F 37.1 °F 43.0 °F 93% 29.80 in 10.0 mi North 19.6 mph 28.8 mph 0.01 in   Overcast
8:53 AM 45.0 °F 38.2 °F 42.1 °F 90% 29.80 in 10.0 mi North 15.0 mph 25.3 mph N/A   Mostly Cloudy
9:14 AM 44.6 °F 38.1 °F 42.8 °F 93% 29.80 in 10.0 mi North 13.8 mph 28.8 mph N/A   Overcast
9:39 AM 44.6 °F 39.2 °F 41.0 °F 87% 29.79 in 10.0 mi North 10.4 mph 23.0 mph N/A   Overcast
9:53 AM 44.1 °F 36.5 °F 41.0 °F 89% 29.79 in 10.0 mi North 17.3 mph 25.3 mph N/A   Overcast
10:09 AM 44.6 °F 37.2 °F 39.2 °F 81% 29.80 in 10.0 mi North 17.3 mph 23.0 mph N/A   Overcast
10:43 AM 42.8 °F 34.8 °F 39.2 °F 87% 29.80 in 10.0 mi North 17.3 mph 23.0 mph N/A   Overcast
10:53 AM 42.1 °F 33.6 °F 39.0 °F 89% 29.80 in 10.0 mi North 18.4 mph 27.6 mph N/A   Overcast
11:53 AM 41.0 °F 33.9 °F 39.0 °F 93% 29.79 in 8.0 mi North 12.7 mph 23.0 mph 0.00 in Rain Light Rain
12:53 PM 39.9 °F 30.8 °F 37.9 °F 93% 29.78 in 9.0 mi North 18.4 mph 25.3 mph 0.00 in Rain Light Rain
1:53 PM 39.0 °F 31.8 °F 37.0 °F 93% 29.79 in 7.0 mi NNW 11.5 mph 23.0 mph 0.02 in Rain Light Rain
2:53 PM 37.9 °F 28.2 °F 36.0 °F 93% 29.79 in 8.0 mi NNW 18.4 mph 25.3 mph 0.03 in Rain Light Rain
3:53 PM 37.0 °F 28.5 °F 36.0 °F 96% 29.81 in 10.0 mi NNW 13.8 mph 23.0 mph 0.01 in   Overcast
4:53 PM 36.0 °F 25.6 °F 35.1 °F 97% 29.81 in 9.0 mi North 18.4 mph 25.3 mph 0.00 in   Overcast
6:53 PM 35.1 °F 27.4 °F 34.0 °F 96% 29.83 in 8.0 mi North 10.4 mph 18.4 mph 0.01 in   Overcast
7:53 PM 34.0 °F 25.5 °F 34.0 °F 100% 29.83 in 6.0 mi NNW 11.5 mph - 0.03 in   Overcast
8:53 PM 34.0 °F 26.0 °F 33.1 °F 96% 29.83 in 6.0 mi NNW 10.4 mph - 0.02 in Rain Light Rain
9:13 PM 33.8 °F 25.8 °F 33.8 °F 100% 29.82 in 6.0 mi NNW 10.4 mph 20.7 mph 0.01 in Rain Light Rain
9:45 PM 35.6 °F 29.2 °F 33.8 °F 93% 29.82 in 7.0 mi NNW 8.1 mph - 0.02 in Rain Light Rain
9:53 PM 35.1 °F 27.4 °F 35.1 °F 100% 29.82 in 7.0 mi NNW 10.4 mph - 0.02 in   Overcast
10:53 PM 36.0 °F 29.0 °F 35.1 °F 97% 29.81 in 7.0 mi NNW 9.2 mph - 0.02 in   Overcast
11:53 PM 35.1 °F 27.4 °F 35.1 °F 100% 29.82 in 7.0 mi NNW 10.4 mph 19.6 mph 0.01 in   Overcast